CDT,Max TemperatureF,Mean TemperatureF,Min TemperatureF,Max Dew PointF,MeanDew PointF,Min DewpointF,Max Humidity, Mean Humidity, Min Humidity, Max Sea Level PressureIn, Mean Sea Level PressureIn, Min Sea Level PressureIn, Max VisibilityMiles, Mean VisibilityMiles, Min VisibilityMiles, Max Wind SpeedMPH, Mean Wind SpeedMPH, Max Gust SpeedMPH,PrecipitationIn, CloudCover, Events, WindDirDegrees
2012-10-1,60,58,55,50,47,45,77,68,55,29.81,29.70,29.62,10,9,4,16,10,24,0.28,6,,22
2012-10-2,57,56,55,50,49,48,77,76,72,29.92,29.77,29.65,10,8,2,13,8,20,0.02,8,,288
2012-10-3,75,64,53,54,49,46,77,60,41,30.15,30.03,29.92,10,10,8,15,8,20,0.00,2,,200
2012-10-4,80,68,55,57,52,46,72,61,39,30.22,30.17,30.13,10,10,10,15,5,21,0.00,1,,196
2012-10-5,68,54,42,54,46,34,77,68,56,30.17,30.11,29.99,10,10,10,15,7,28,0.34,4,,338
2012-10-6,57,46,37,36,31,28,76,56,38,30.23,30.19,30.15,10,10,10,13,6,16,0.01,3,,333
2012-10-7,55,47,39,32,31,28,75,54,41,30.24,30.20,30.17,10,10,10,12,6,17,0.00,3,,325
2012-10-8,60,48,37,36,32,28,76,57,34,30.25,30.19,30.13,10,10,10,7,1,,0.00,0,,213
2012-10-9,64,50,35,43,35,27,75,59,40,30.15,30.07,29.97,10,10,10,14,3,22,0.00,0,,203
2012-10-10,57,46,33,43,33,25,75,55,36,30.27,30.16,29.98,10,10,10,17,8,25,0.00,3,,300
2012-10-11,64,47,32,39,31,23,75,55,34,30.30,30.25,30.19,10,10,10,12,2,,0.00,3,,189
2012-10-12,68,59,50,46,44,39,76,64,43,30.33,30.27,30.19,10,10,5,13,3,,0.01,3,Thunderstorm,80
2012-10-13,78,62,46,63,52,39,82,67,54,30.27,30.12,29.96,10,9,3,18,6,24,0.00,3,,174
2012-10-14,75,65,55,59,56,46,78,66,50,29.92,29.85,29.77,10,10,8,28,17,41,0.07,5,,214
2012-10-15,68,55,42,48,42,36,76,61,43,30.01,29.97,29.92,10,10,5,14,5,20,0.00,1,,290
2012-10-16,75,57,39,52,44,32,81,58,41,30.00,29.87,29.74,10,10,10,15,6,22,0.00,0,,172
2012-10-17,75,67,57,52,48,45,82,52,38,29.78,29.57,29.44,10,10,6,28,15,34,0.90,3,Thunderstorm,185
2012-10-18,66,56,46,52,39,32,82,55,30,29.70,29.65,29.51,10,10,10,24,12,36,0.05,2,,224
2012-10-19,55,50,48,41,37,32,71,58,44,29.80,29.68,29.59,10,10,10,21,10,28,0.05,8,,233
2012-10-20,60,52,44,43,39,36,76,63,52,29.98,29.90,29.81,10,10,10,12,7,,0.00,6,,241
2012-10-21,78,60,42,57,46,34,76,61,43,30.05,30.01,29.97,10,10,8,13,5,,0.00,2,,158
2012-10-22,82,73,64,55,50,46,56,48,32,30.09,30.05,30.01,10,10,10,23,10,28,0.00,3,,194
2012-10-23,78,68,57,55,50,45,63,54,42,30.07,30.02,29.97,10,10,10,16,8,22,0.00,0,,193
2012-10-24,80,70,59,59,52,46,67,57,44,30.09,30.03,29.98,10,10,10,16,8,21,0.00,1,,182
2012-10-25,80,68,53,57,53,43,72,58,45,30.05,29.96,29.90,10,10,10,21,9,29,0.00,1,,186
2012-10-26,51,48,42,41,34,28,76,66,57,30.24,30.18,30.05,10,10,6,16,11,21,0.77,7,,347
2012-10-27,53,46,39,34,30,27,65,54,41,30.20,30.16,30.10,10,10,10,17,10,23,0.00,1,,1
2012-10-28,53,46,39,32,29,27,65,54,38,30.17,30.14,30.11,10,10,10,17,10,23,0.00,0,,352
2012-10-29,53,44,35,28,26,25,65,51,35,30.20,30.12,29.99,10,10,10,20,10,29,0.00,0,,331
2012-10-30,53,44,33,27,23,19,60,43,28,29.99,29.85,29.78,10,10,10,21,13,30,0.00,0,,310
2012-10-31,51,40,30,30,24,19,64,50,38,29.96,29.90,29.85,10,10,10,17,8,23,0.00,1,,287